Regional Weather Roundup
Issued by NWS

Home | Current Version | Previous Version | Graphics & Text | Print | Product List | Glossary On
Versions: 1 2 3 4 5 6 7 8 9 10 11 12 13 14 15 16 17 18 19 20 21 22 23 24 25 26 27 28 29 30 31 32 33 34 35 36 37 38 39 40 41 42 43 44 45 46 47 48 49 50
000
ASUS45 KSLC 040710
RWRUT

UTAH REGIONAL WEATHER ROUNDUP
NATIONAL WEATHER SERVICE SALT LAKE CITY UT
100 AM MDT TUE AUG 04 2015

UTZ001>011-023>025-040800-

NORTHERN UTAH

CITY           SKY/WX    TMP DP  RH WIND       PRES   REMARKS
BRIGHAM CITY   PTCLDY    62  56  80 CALM      30.10R
HILL AFB       PTCLDY    60  59  96 SE3       30.11S
LOGAN          CLEAR     59  57  93 SE7       30.10R
OGDEN          PTCLDY    61  57  87 S5        30.09R
PROVO AIRPORT  PTCLDY    63  54  72 W7        30.11R
SALT LAKE CITY MOCLDY    64  55  72 SE5       30.07S
VERNAL         PTCLDY    59  50  72 N6        30.12S
WENDOVER       PTCLDY    68  52  56 E5        30.06S
HEBER CITY     PTCLDY    52  50  93 CALM      30.18S
WEST JORDAN    CLEAR     61  55  82 SW3       30.10R

$$

UTZ012>022-026-027-040800-

SOUTHERN/CENTRAL UTAH

CITY           SKY/WX    TMP DP  RH WIND       PRES   REMARKS
BLANDING       MOCLDY    65  49  55 N3        30.27R
BRYCE CANYON   CLEAR     54  46  74 NW7       30.31S
CEDAR CITY     MOCLDY    64  45  49 S6        30.14S
DELTA          CLEAR     62  56  82 CALM      30.08S
HANKSVILLE     PTCLDY    64  57  77 CALM      30.11S
MILFORD        CLEAR     63  50  62 S6        30.10R
MOAB/CYNLANDS  CLEAR     64  57  78 E3        30.06F
PRICE          PTCLDY    61  49  64 CALM      30.16F
ST GEORGE      MOSUNNY   88  39  18 N3        29.92R
KANAB          MOCLDY    66  43  42 NE3       30.15R

$$

REGIONAL REPORTS     COLORADO/ARIZONA

CITY           SKY/WX    TMP DP  RH WIND       PRES   REMARKS
CRAIG, CO      PTCLDY    56  51  84 CALM      30.20R
GRAND JUNCTION CLOUDY    68  48  48 NE8       30.09F
RIFLE          PTCLDY    61  55  81 CALM      30.14R
MONTROSE       MOCLDY    65  48  54 NE6       30.22R
CORTEZ         LGT RAIN  65  47  52 NW17G30   30.21R
PAGE, AZ       NOT AVBL
GRAND CANYON   CLEAR     52  40  63 E3        30.26R
KINGMAN        CLEAR     79  31  17 S12       29.97S
FLAGSTAFF      CLEAR     58  43  57 CALM      30.29S

$$

REGIONAL REPORTS    NEVADA/IDAHO/WYOMING

CITY           SKY/WX    TMP DP  RH WIND       PRES   REMARKS
LAS VEGAS, NV  PTCLDY    91  25   9 SW9       29.79S
ELY            CLEAR     54  40  59 W3        30.17S
ELKO           PTCLDY    66  40  38 CALM      30.05R
POCATELLO, ID  MOCLDY    63  59  87 E7        30.05R
BURLEY         MOCLDY    68  51  54 SE7       29.99R
EVANSTON, WY   PTCLDY    52  47  83 W9        30.23R
ROCK SPRINGS   CLOUDY    54  50  86 W20       30.16S
KEMMERER       CLOUDY    52  50  93 W8        30.21S

$$


USA.gov is the U.S. government's official web portal to all federal, state and local government web resources and services.